| time (UTC) | temp C | wind direction | speed KPH | gust KPH | rain 1hr cm | rain 24hr cm | rain mn cm | humidity % | barometer mb |
| 20260502194941 | 13 | 119 | 0.0 | 1.6 | 0.00 | 0.00 | 0.00 | 65 | 1020.3 |
| 20260502194441 | 13 | 119 | 0.0 | 1.6 | 0.00 | 0.00 | 0.00 | 66 | 1020.0 |
| 20260502193935 | 13 | 49 | 0.0 | 1.6 | 0.00 | 0.00 | 0.00 | 65 | 1020.0 |
| 20260502193429 | 13 | 17 | 0.0 | 4.8 | 0.00 | 0.00 | 0.00 | 64 | 1020.0 |
| 20260502192407 | 13 | 123 | 0.0 | 1.6 | 0.00 | 0.00 | 0.00 | 65 | 1020.1 |
| 20260502191352 | 14 | 131 | 0.0 | 1.6 | 0.00 | 0.00 | 0.00 | 64 | 1020.0 |
| 20260502190855 | 14 | 130 | 0.0 | 1.6 | 0.00 | 0.00 | 0.00 | 63 | 1019.8 |
| 20260502190354 | 14 | 129 | 0.0 | 3.2 | 0.00 | 0.00 | 0.00 | 63 | 1019.9 |
| 20260502185854 | 15 | 129 | 0.0 | 3.2 | 0.00 | 0.00 | 0.00 | 62 | 1019.7 |
| 20260502184853 | 15 | 133 | 0.0 | 1.6 | 0.00 | 0.00 | 0.00 | 62 | 1019.4 |
| 20260502184353 | 15 | 129 | 0.0 | 1.6 | 0.00 | 0.00 | 0.00 | 61 | 1019.7 |
| 20260502183856 | 16 | 73 | 0.0 | 1.6 | 0.00 | 0.00 | 0.00 | 58 | 1019.3 |
| 20260502183351 | 16 | 79 | 0.0 | 1.6 | 0.00 | 0.00 | 0.00 | 58 | 1019.3 |
| 20260502182852 | 16 | 79 | 0.0 | 1.6 | 0.00 | 0.00 | 0.00 | 56 | 1019.3 |
| 20260502182352 | 17 | 82 | 1.6 | 1.6 | 0.00 | 0.00 | 0.00 | 56 | 1019.4 |
| 20260502181353 | 17 | 2 | 0.0 | 1.6 | 0.00 | 0.00 | 0.00 | 53 | 1019.1 |
| 20260502180352 | 18 | 359 | 0.0 | 4.8 | 0.00 | 0.00 | 0.00 | 53 | 1019.1 |
| 20260502170341 | 22 | 161 | 0.0 | 3.2 | 0.00 | 0.00 | 0.00 | 33 | 1018.7 |
| 20260502164334 | 23 | 118 | 1.6 | 3.2 | 0.00 | 0.00 | 0.00 | 33 | 1018.7 |
| 20260502163828 | 23 | 180 | 0.0 | 1.6 | 0.00 | 0.00 | 0.00 | 30 | 1018.8 |
| 20260502163327 | 23 | 136 | 0.0 | 0.0 | 0.00 | 0.00 | 0.00 | 31 | 1018.9 |
| 20260502162823 | 23 | 86 | 0.0 | 0.0 | 0.00 | 0.00 | 0.00 | 31 | 1018.7 |
| 20260502162316 | 23 | 86 | 0.0 | 1.6 | 0.00 | 0.00 | 0.00 | 30 | 1019.0 |
| 20260502161816 | 23 | 85 | 0.0 | 1.6 | 0.00 | 0.00 | 0.00 | 29 | 1019.0 |
| 20260502161310 | 23 | 41 | 0.0 | 1.6 | 0.00 | 0.00 | 0.00 | 31 | 1018.9 |
| 20260502160805 | 23 | 8 | 0.0 | 1.6 | 0.00 | 0.00 | 0.00 | 30 | 1018.9 |
| 20260502160304 | 23 | 146 | 0.0 | 1.6 | 0.00 | 0.00 | 0.00 | 30 | 1018.9 |
| 20260502152248 | 23 | 230 | 0.0 | 1.6 | 0.00 | 0.00 | 0.00 | 29 | 1019.3 |
| 20260502151741 | 23 | 236 | 0.0 | 1.6 | 0.00 | 0.00 | 0.00 | 29 | 1019.2 |
| 20260502151243 | 23 | 191 | 0.0 | 1.6 | 0.00 | 0.00 | 0.00 | 30 | 1019.5 |
| 20260502150734 | 23 | 184 | 0.0 | 1.6 | 0.00 | 0.00 | 0.00 | 30 | 1019.4 |
| 20260502150230 | 23 | 185 | 0.0 | 1.6 | 0.00 | 0.00 | 0.00 | 30 | 1019.3 |
| 20260502130651 | 25 | 193 | 0.0 | 1.6 | 0.00 | 0.00 | 0.00 | 28 | 1021.1 |
| 20260502130154 | 25 | 188 | 0.0 | 3.2 | 0.00 | 0.00 | 0.00 | 27 | 1021.0 |
| 20260502123152 | 24 | 112 | 1.6 | 4.8 | 0.00 | 0.00 | 0.00 | 29 | 1021.5 |
| 20260502122654 | 25 | 226 | 0.0 | 3.2 | 0.00 | 0.00 | 0.00 | 26 | 1021.5 |
| 20260502122153 | 25 | 165 | 0.0 | 3.2 | 0.00 | 0.00 | 0.00 | 29 | 1021.5 |
| 20260502121153 | 23 | 211 | 0.0 | 6.4 | 0.00 | 0.00 | 0.00 | 28 | 1021.6 |
| 20260502120653 | 25 | 141 | 0.0 | 3.2 | 0.00 | 0.00 | 0.00 | 28 | 1021.6 |
| 20260502114640 | 23 | 146 | 1.6 | 4.8 | 0.00 | 0.00 | 0.00 | 28 | 1021.9 |
| 20260502114143 | 23 | 123 | 1.6 | 6.4 | 0.00 | 0.00 | 0.00 | 28 | 1022.1 |
| 20260502112641 | 23 | 156 | 1.6 | 3.2 | 0.00 | 0.00 | 0.00 | 28 | 1022.2 |
| 20260502112142 | 23 | 179 | 1.6 | 3.2 | 0.00 | 0.00 | 0.00 | 30 | 1022.1 |
| 20260502111641 | 22 | 240 | 0.0 | 3.2 | 0.00 | 0.00 | 0.00 | 29 | 1022.3 |
| 20260502111142 | 22 | 114 | 0.0 | 3.2 | 0.00 | 0.00 | 0.00 | 31 | 1022.4 |
| 20260502110641 | 23 | 152 | 1.6 | 1.6 | 0.00 | 0.00 | 0.00 | 26 | 1022.7 |
| 20260502110142 | 24 | 180 | 0.0 | 1.6 | 0.00 | 0.00 | 0.00 | 26 | 1022.6 |
| 20260502105642 | 24 | 124 | 0.0 | 1.6 | 0.00 | 0.00 | 0.00 | 28 | 1022.7 |
| 20260502105142 | 24 | 148 | 0.0 | 1.6 | 0.00 | 0.00 | 0.00 | 26 | 1023.0 |
| 20260502104641 | 23 | 140 | 0.0 | 1.6 | 0.00 | 0.00 | 0.00 | 27 | 1022.9 |
| 20260502104141 | 23 | 159 | 0.0 | 3.2 | 0.00 | 0.00 | 0.00 | 29 | 1022.9 |
| 20260502103641 | 23 | 163 | 1.6 | 1.6 | 0.00 | 0.00 | 0.00 | 28 | 1023.0 |
| 20260502103143 | 23 | 184 | 0.0 | 1.6 | 0.00 | 0.00 | 0.00 | 26 | 1023.1 |
| 20260502102641 | 23 | 212 | 0.0 | 1.6 | 0.00 | 0.00 | 0.00 | 27 | 1023.3 |
| 20260502100640 | 22 | 339 | 0.0 | 1.6 | 0.00 | 0.00 | 0.00 | 30 | 1023.5 |
| 20260502100140 | 22 | 349 | 0.0 | 1.6 | 0.00 | 0.00 | 0.00 | 30 | 1023.3 |
| 20260502090616 | 21 | 279 | 0.0 | 1.6 | 0.00 | 0.00 | 0.00 | 39 | 1023.9 |
| 20260502090110 | 20 | 287 | 0.0 | 1.6 | 0.00 | 0.00 | 0.00 | 35 | 1024.1 |
| 20260502071506 | 12 | 3 | 0.0 | 0.0 | 0.00 | 0.00 | 0.00 | 56 | 1024.8 |
| 20260502071006 | 11 | 3 | 0.0 | 1.6 | 0.00 | 0.00 | 0.00 | 62 | 1024.9 |
| 20260502065953 | 11 | 7 | 0.0 | 0.0 | 0.00 | 0.00 | 0.00 | 62 | 1024.7 |
| 20260502065456 | 9 | 8 | 0.0 | 0.0 | 0.00 | 0.00 | 0.00 | 67 | 1025.0 |
| 20260502064952 | 9 | 8 | 0.0 | 0.0 | 0.00 | 0.00 | 0.00 | 66 | 1025.1 |
| 20260502064439 | 8 | 7 | 0.0 | 1.6 | 0.00 | 0.00 | 0.00 | 69 | 1024.9 |
| 20260502063939 | 8 | 7 | 0.0 | 1.6 | 0.00 | 0.00 | 0.00 | 69 | 1025.0 |
| 20260502063440 | 8 | 7 | 0.0 | 0.0 | 0.00 | 0.00 | 0.00 | 67 | 1025.1 |
| 20260502062940 | 7 | 7 | 0.0 | 0.0 | 0.00 | 0.00 | 0.00 | 72 | 1025.0 |
| 20260502062439 | 8 | 7 | 0.0 | 0.0 | 0.00 | 0.00 | 0.00 | 69 | 1025.1 |
| 20260502061941 | 7 | 7 | 0.0 | 0.0 | 0.00 | 0.00 | 0.00 | 71 | 1025.0 |
| 20260502061442 | 7 | 7 | 0.0 | 0.0 | 0.00 | 0.00 | 0.00 | 72 | 1025.0 |
| 20260502060928 | 7 | 7 | 0.0 | 0.0 | 0.00 | 0.00 | 0.00 | 73 | 1025.0 |
| 20260502060428 | 6 | 7 | 0.0 | 0.0 | 0.00 | 0.00 | 0.00 | 75 | 1025.0 |
| 20260502055928 | 6 | 8 | 0.0 | 0.0 | 0.00 | 0.00 | 0.00 | 78 | 1025.1 |
| 20260502055415 | 5 | 8 | 0.0 | 0.0 | 0.00 | 0.00 | 0.00 | 79 | 1025.0 |
| 20260502054916 | 5 | 8 | 0.0 | 0.0 | 0.00 | 0.00 | 0.00 | 79 | 1025.1 |
| 20260502054416 | 5 | 8 | 0.0 | 0.0 | 0.00 | 0.00 | 0.00 | 81 | 1025.2 |
| 20260502053903 | 5 | 8 | 0.0 | 0.0 | 0.00 | 0.00 | 0.00 | 80 | 1024.9 |
| 20260502053405 | 4 | 8 | 0.0 | 1.6 | 0.00 | 0.00 | 0.00 | 81 | 1024.9 |
| 20260502052906 | 4 | 8 | 0.0 | 1.6 | 0.00 | 0.00 | 0.00 | 83 | 1025.2 |
| 20260502052353 | 3 | 90 | 0.0 | 1.6 | 0.00 | 0.00 | 0.00 | 83 | 1025.1 |
| 20260502051855 | 3 | 128 | 0.0 | 0.0 | 0.00 | 0.00 | 0.00 | 84 | 1025.1 |
| 20260502051353 | 3 | 128 | 0.0 | 0.0 | 0.00 | 0.00 | 0.00 | 84 | 1025.0 |
| 20260502050841 | 3 | 128 | 0.0 | 0.0 | 0.00 | 0.00 | 0.00 | 84 | 1025.0 |
| 20260502050341 | 3 | 128 | 0.0 | 0.0 | 0.00 | 0.00 | 0.00 | 84 | 1025.1 |
| 20260502045840 | 3 | 128 | 0.0 | 1.6 | 0.00 | 0.00 | 0.00 | 84 | 1025.1 |
| 20260502045330 | 3 | 128 | 0.0 | 1.6 | 0.00 | 0.00 | 0.00 | 85 | 1024.9 |
| 20260502044829 | 3 | 130 | 0.0 | 0.0 | 0.00 | 0.00 | 0.00 | 84 | 1025.0 |
| 20260502044327 | 3 | 130 | 0.0 | 3.2 | 0.00 | 0.00 | 0.00 | 84 | 1024.6 |
| 20260502043329 | 3 | 132 | 0.0 | 3.2 | 0.00 | 0.00 | 0.00 | 84 | 1024.9 |
| 20260502042830 | 3 | 347 | 0.0 | 3.2 | 0.00 | 0.00 | 0.00 | 84 | 1025.0 |
| 20260502042329 | 3 | 135 | 0.0 | 1.6 | 0.00 | 0.00 | 0.00 | 85 | 1024.9 |
| 20260502040828 | 3 | 140 | 0.0 | 1.6 | 0.00 | 0.00 | 0.00 | 84 | 1024.9 |
| 20260502035819 | 3 | 28 | 0.0 | 1.6 | 0.00 | 0.00 | 0.00 | 84 | 1024.7 |
| 20260502035306 | 3 | 32 | 0.0 | 1.6 | 0.00 | 0.00 | 0.00 | 83 | 1025.0 |
| 20260502034755 | 3 | 29 | 0.0 | 0.0 | 0.00 | 0.00 | 0.00 | 84 | 1024.7 |
| 20260502034254 | 3 | 29 | 0.0 | 1.6 | 0.00 | 0.00 | 0.00 | 84 | 1024.6 |
| 20260502033757 | 3 | 29 | 0.0 | 1.6 | 0.00 | 0.00 | 0.00 | 84 | 1024.7 |
| 20260502033252 | 3 | 32 | 0.0 | 1.6 | 0.00 | 0.00 | 0.00 | 84 | 1024.7 |
| 20260502032754 | 3 | 32 | 0.0 | 1.6 | 0.00 | 0.00 | 0.00 | 82 | 1024.9 |
| 20260502032254 | 3 | 12 | 0.0 | 1.6 | 0.00 | 0.00 | 0.00 | 83 | 1024.6 |
| 20260502031752 | 3 | 11 | 0.0 | 1.6 | 0.00 | 0.00 | 0.00 | 83 | 1024.6 |
| 20260502031252 | 3 | 37 | 0.0 | 1.6 | 0.00 | 0.00 | 0.00 | 83 | 1024.6 |
| 20260502030741 | 3 | 37 | 0.0 | 1.6 | 0.00 | 0.00 | 0.00 | 82 | 1024.8 |
| 20260502030241 | 3 | 320 | 0.0 | 0.0 | 0.00 | 0.00 | 0.00 | 83 | 1024.7 |
| 20260502025742 | 3 | 320 | 0.0 | 1.6 | 0.00 | 0.00 | 0.00 | 82 | 1024.8 |
| 20260502025241 | 3 | 303 | 0.0 | 1.6 | 0.00 | 0.00 | 0.00 | 82 | 1024.7 |
| 20260502024742 | 3 | 303 | 0.0 | 0.0 | 0.00 | 0.00 | 0.00 | 80 | 1024.8 |
| 20260502024242 | 3 | 320 | 0.0 | 1.6 | 0.00 | 0.00 | 0.00 | 81 | 1024.8 |
| 20260502023740 | 3 | 320 | 0.0 | 1.6 | 0.00 | 0.00 | 0.00 | 80 | 1024.9 |
| 20260502023241 | 3 | 317 | 0.0 | 0.0 | 0.00 | 0.00 | 0.00 | 80 | 1024.7 |
| 20260502022740 | 3 | 317 | 0.0 | 0.0 | 0.00 | 0.00 | 0.00 | 79 | 1024.9 |
| 20260502022244 | 4 | 320 | 0.0 | 3.2 | 0.00 | 0.00 | 0.00 | 78 | 1024.9 |
| 20260502021741 | 3 | 320 | 0.0 | 3.2 | 0.00 | 0.00 | 0.00 | 79 | 1024.9 |
| 20260502021240 | 3 | 317 | 0.0 | 3.2 | 0.00 | 0.00 | 0.00 | 80 | 1024.7 |
| 20260502015741 | 3 | 343 | 1.6 | 3.2 | 0.00 | 0.00 | 0.00 | 80 | 1025.0 |
| 20260502014741 | 3 | 25 | 0.0 | 1.6 | 0.00 | 0.00 | 0.00 | 80 | 1025.2 |
| 20260502014241 | 3 | 26 | 0.0 | 1.6 | 0.00 | 0.00 | 0.00 | 79 | 1025.2 |
| 20260502013744 | 3 | 22 | 0.0 | 1.6 | 0.00 | 0.00 | 0.00 | 79 | 1025.0 |
| 20260502013228 | 4 | 23 | 0.0 | 1.6 | 0.00 | 0.00 | 0.00 | 78 | 1024.9 |
| 20260502012216 | 3 | 359 | 0.0 | 1.6 | 0.00 | 0.00 | 0.00 | 78 | 1025.2 |
| 20260502011716 | 3 | 329 | 0.0 | 0.0 | 0.00 | 0.00 | 0.00 | 80 | 1025.3 |
| 20260502011219 | 3 | 329 | 0.0 | 0.0 | 0.00 | 0.00 | 0.00 | 79 | 1025.2 |
| 20260502010655 | 3 | 329 | 0.0 | 0.0 | 0.00 | 0.00 | 0.00 | 79 | 1025.3 |
| 20260502010152 | 4 | 329 | 0.0 | 1.6 | 0.00 | 0.00 | 0.00 | 78 | 1025.2 |
| 20260502005654 | 4 | 328 | 0.0 | 1.6 | 0.00 | 0.00 | 0.00 | 78 | 1025.0 |
| 20260502005153 | 4 | 325 | 0.0 | 1.6 | 0.00 | 0.00 | 0.00 | 78 | 1025.1 |
| 20260502004155 | 4 | 319 | 0.0 | 0.0 | 0.00 | 0.00 | 0.00 | 76 | 1025.0 |
| 20260502003643 | 4 | 319 | 0.0 | 3.2 | 0.00 | 0.00 | 0.00 | 75 | 1025.1 |
| 20260502003141 | 4 | 318 | 1.6 | 3.2 | 0.00 | 0.00 | 0.00 | 75 | 1025.4 |
| 20260502002641 | 4 | 327 | 0.0 | 1.6 | 0.00 | 0.00 | 0.00 | 75 | 1025.2 |
| 20260502001642 | 5 | 323 | 0.0 | 3.2 | 0.00 | 0.00 | 0.00 | 75 | 1025.4 |
| 20260502001143 | 4 | 334 | 0.0 | 0.0 | 0.00 | 0.00 | 0.00 | 75 | 1025.3 |
| 20260502000641 | 5 | 334 | 0.0 | 0.0 | 0.00 | 0.00 | 0.00 | 74 | 1025.4 |
| 20260502000139 | 5 | 334 | 0.0 | 0.0 | 0.00 | 0.00 | 0.00 | 74 | 1025.3 |
| 20260501235127 | 5 | 333 | 0.0 | 1.6 | 0.00 | 0.00 | 0.00 | 72 | 1025.2 |
| 20260501234615 | 5 | 333 | 0.0 | 3.2 | 0.00 | 0.00 | 0.00 | 73 | 1025.4 |
| 20260501233617 | 5 | 19 | 0.0 | 1.6 | 0.00 | 0.00 | 0.00 | 73 | 1025.1 |
| 20260501233104 | 5 | 11 | 0.0 | 1.6 | 0.00 | 0.00 | 0.00 | 73 | 1025.1 |
| 20260501232605 | 5 | 8 | 0.0 | 3.2 | 0.00 | 0.00 | 0.00 | 71 | 1025.1 |
| 20260501232104 | 5 | 8 | 0.0 | 3.2 | 0.00 | 0.00 | 0.00 | 70 | 1025.1 |
| 20260501231553 | 6 | 28 | 0.0 | 1.6 | 0.00 | 0.00 | 0.00 | 70 | 1025.3 |
| 20260501231053 | 5 | 352 | 1.6 | 1.6 | 0.00 | 0.00 | 0.00 | 70 | 1025.1 |
| 20260501230553 | 5 | 358 | 0.0 | 1.6 | 0.00 | 0.00 | 0.00 | 70 | 1025.2 |
| 20260501230053 | 6 | 358 | 0.0 | 1.6 | 0.00 | 0.00 | 0.00 | 70 | 1025.1 |
| 20260501225052 | 5 | 342 | 0.0 | 1.6 | 0.00 | 0.00 | 0.00 | 70 | 1025.3 |
| 20260501224553 | 6 | 337 | 0.0 | 1.6 | 0.00 | 0.00 | 0.00 | 69 | 1025.0 |
| 20260501224041 | 6 | 340 | 0.0 | 1.6 | 0.00 | 0.00 | 0.00 | 68 | 1024.9 |
| 20260501223040 | 6 | 341 | 0.0 | 3.2 | 0.00 | 0.00 | 0.00 | 66 | 1025.0 |
| 20260501222016 | 6 | 348 | 0.0 | 1.6 | 0.00 | 0.00 | 0.00 | 65 | 1024.9 |
| 20260501221504 | 6 | 341 | 0.0 | 1.6 | 0.00 | 0.00 | 0.00 | 65 | 1025.0 |
| 20260501221003 | 6 | 341 | 0.0 | 1.6 | 0.00 | 0.00 | 0.00 | 65 | 1024.9 |
| 20260501215951 | 7 | 344 | 0.0 | 1.6 | 0.00 | 0.00 | 0.00 | 63 | 1024.5 |
| 20260501215453 | 7 | 345 | 0.0 | 3.2 | 0.00 | 0.00 | 0.00 | 63 | 1024.6 |
| 20260501214953 | 7 | 336 | 0.0 | 3.2 | 0.00 | 0.00 | 0.00 | 61 | 1024.6 |
| 20260501213443 | 7 | 351 | 0.0 | 3.2 | 0.00 | 0.00 | 0.00 | 62 | 1024.6 |
| 20260501212941 | 7 | 336 | 1.6 | 6.4 | 0.00 | 0.00 | 0.00 | 61 | 1024.5 |
| 20260501212442 | 7 | 325 | 4.8 | 6.4 | 0.00 | 0.00 | 0.00 | 61 | 1024.5 |
| 20260501211940 | 7 | 2 | 0.0 | 1.6 | 0.00 | 0.00 | 0.00 | 62 | 1024.4 |
| 20260501210940 | 7 | 309 | 0.0 | 3.2 | 0.00 | 0.00 | 0.00 | 61 | 1024.6 |
| 20260501210445 | 7 | 304 | 1.6 | 3.2 | 0.00 | 0.00 | 0.00 | 60 | 1024.6 |
| 20260501205943 | 7 | 307 | 0.0 | 3.2 | 0.00 | 0.00 | 0.00 | 58 | 1024.4 |
| 20260501205444 | 7 | 306 | 0.0 | 3.2 | 0.00 | 0.00 | 0.00 | 59 | 1024.4 |
| 20260501204927 | 8 | 356 | 0.0 | 3.2 | 0.00 | 0.00 | 0.00 | 60 | 1024.4 |
| 20260501203928 | 8 | 229 | 1.6 | 1.6 | 0.00 | 0.00 | 0.00 | 57 | 1024.6 |
| 20260501203415 | 8 | 170 | 1.6 | 1.6 | 0.00 | 0.00 | 0.00 | 57 | 1024.4 |
| 20260501202917 | 8 | 173 | 1.6 | 1.6 | 0.00 | 0.00 | 0.00 | 56 | 1024.3 |
| 20260501202419 | 8 | 171 | 0.0 | 3.2 | 0.00 | 0.00 | 0.00 | 57 | 1024.3 |
| 20260501201904 | 8 | 173 | 0.0 | 4.8 | 0.00 | 0.00 | 0.00 | 55 | 1024.1 |
| 20260501200353 | 9 | 326 | 0.0 | 4.8 | 0.00 | 0.00 | 0.00 | 54 | 1024.0 |
| 20260501195851 | 9 | 336 | 0.0 | 1.6 | 0.00 | 0.00 | 0.00 | 51 | 1023.9 |